Simultaneous Nadir Overpasses (SNOs) Predictions

Prediction of SNOs between TERRA and METOP-C Satellite Orbit:

Table of predicted SNOs for the next 14.0 days since TLE Epoch: 2/13/2021
Index Date (TERRA) Time (TERRA) Lat,Lon (TERRA) SZA (TERRA ) Date (METOP-C) Time (METOP-C) Lat,Lon (METOP-C) SZA (METOP-C ) Distance(km) Time Diff (sec)
1 02/14/2021 07:35:32 81.27, 112.30 96.39 02/14/2021 07:34:40 81.28, 112.34 96.38 0.89 52
2 02/14/2021 08:24:58 -81.29, -79.78 83.58 02/14/2021 08:25:20 -81.29, -79.65 83.56 2.20 22
3 02/17/2021 03:09:44 81.29, 179.05 95.47 02/17/2021 03:09:02 81.28, 178.97 95.44 1.72 42
4 02/17/2021 03:59:11 -81.29, -13.37 84.55 02/17/2021 03:59:43 -81.29, -13.38 84.54 0.10 32
5 02/19/2021 22:43:57 81.28,-114.61 94.47 02/19/2021 22:43:24 81.28,-114.41 94.48 3.24 33
6 02/19/2021 23:33:24 -81.28, 53.00 85.55 02/19/2021 23:34:06 -81.28, 52.87 85.55 2.12 42
7 02/22/2021 18:18:09 81.28, -48.30 93.44 02/22/2021 18:17:46 81.28, -48.20 93.45 1.77 23
8 02/22/2021 19:07:35 -81.30, 119.70 86.52 02/22/2021 19:08:26 -81.29, 119.88 86.48 2.98 51
9 02/25/2021 13:52:21 81.29, 18.34 92.45 02/25/2021 13:52:08 81.28, 18.39 92.44 0.86 13



Historial Predications of SNOs between TERRA and METOP-C
